| time (UTC) | temp F | wind direction | speed MPH | gust MPH | rain 1hr in | rain 24hr in | rain mn in | humidity % | barometer mb |
| 20260510031945 | 59 | 230 | 0.0 | 0.0 | 0.00 | 0.03 | 0.03 | 79 | 1008.0 |
| 20260510031441 | 59 | 230 | 0.0 | 0.0 | 0.00 | 0.03 | 0.03 | 79 | 1008.0 |
| 20260510030936 | 59 | 245 | 0.0 | 0.0 | 0.00 | 0.03 | 0.03 | 79 | 1008.3 |
| 20260510030431 | 58 | 175 | 0.0 | 0.0 | 0.00 | 0.03 | 0.03 | 80 | 1007.9 |
| 20260510025908 | 59 | 250 | 0.0 | 0.0 | 0.00 | 0.03 | 0.03 | 80 | 1008.0 |
| 20260510025405 | 59 | 250 | 0.0 | 0.0 | 0.00 | 0.03 | 0.03 | 80 | 1008.0 |
| 20260510024902 | 59 | 250 | 0.0 | 0.0 | 0.00 | 0.03 | 0.03 | 80 | 1008.0 |
| 20260510024358 | 58 | 229 | 0.0 | 0.0 | 0.00 | 0.03 | 0.03 | 80 | 1008.2 |
| 20260510023854 | 58 | 239 | 0.0 | 0.0 | 0.00 | 0.03 | 0.03 | 80 | 1008.0 |
| 20260510023350 | 59 | 248 | 0.0 | 0.0 | 0.00 | 0.03 | 0.03 | 79 | 1008.0 |
| 20260510022438 | 59 | 268 | 0.0 | 0.0 | 0.00 | 0.03 | 0.03 | 79 | 1007.6 |
| 20260510021938 | 59 | 268 | 0.0 | 0.0 | 0.00 | 0.03 | 0.03 | 79 | 1007.6 |
| 20260510021436 | 59 | 300 | 0.0 | 1.0 | 0.00 | 0.03 | 0.03 | 79 | 1008.0 |
| 20260510020932 | 59 | 239 | 0.0 | 0.0 | 0.00 | 0.03 | 0.03 | 78 | 1007.6 |
| 20260510020427 | 59 | 263 | 0.0 | 0.0 | 0.00 | 0.03 | 0.03 | 79 | 1007.8 |
| 20260510015923 | 59 | 252 | 0.0 | 0.0 | 0.00 | 0.03 | 0.03 | 78 | 1007.8 |
| 20260510015419 | 59 | 255 | 0.0 | 0.0 | 0.00 | 0.03 | 0.03 | 79 | 1007.5 |
| 20260510014914 | 59 | 255 | 0.0 | 0.0 | 0.00 | 0.03 | 0.03 | 79 | 1007.5 |
| 20260510014412 | 59 | 254 | 0.0 | 0.0 | 0.00 | 0.03 | 0.03 | 79 | 1007.2 |
| 20260510013908 | 59 | 232 | 0.0 | 0.0 | 0.00 | 0.03 | 0.03 | 78 | 1007.3 |
| 20260510000450 | 65 | 204 | 0.0 | 0.0 | 0.00 | 0.03 | 0.03 | 65 | 1006.1 |
| 20260509235947 | 65 | 204 | 0.0 | 0.0 | 0.00 | 0.03 | 0.03 | 65 | 1006.1 |
| 20260509235444 | 65 | 251 | 0.0 | 0.0 | 0.00 | 0.03 | 0.03 | 65 | 1005.9 |
| 20260509234940 | 65 | 141 | 4.0 | 7.0 | 0.00 | 0.03 | 0.03 | 65 | 1005.9 |
| 20260509234437 | 65 | 356 | 0.0 | 0.0 | 0.00 | 0.03 | 0.03 | 64 | 1006.1 |
| 20260509233935 | 65 | 311 | 0.0 | 1.0 | 0.00 | 0.03 | 0.03 | 65 | 1005.9 |
| 20260509233432 | 65 | 226 | 0.0 | 0.0 | 0.00 | 0.03 | 0.03 | 65 | 1005.9 |
| 20260509232928 | 66 | 345 | 0.0 | 0.0 | 0.00 | 0.03 | 0.03 | 64 | 1005.9 |
| 20260509232426 | 66 | 137 | 1.0 | 2.0 | 0.00 | 0.03 | 0.03 | 64 | 1005.7 |
| 20260509231921 | 66 | 100 | 1.0 | 1.0 | 0.00 | 0.03 | 0.03 | 64 | 1006.0 |
| 20260509231418 | 66 | 297 | 0.0 | 1.0 | 0.00 | 0.03 | 0.03 | 63 | 1005.9 |
| 20260509230917 | 67 | 141 | 3.0 | 4.0 | 0.00 | 0.03 | 0.03 | 64 | 1005.6 |
| 20260509230413 | 67 | 6 | 0.0 | 0.0 | 0.00 | 0.03 | 0.03 | 62 | 1005.9 |
| 20260509225909 | 68 | 155 | 2.0 | 2.0 | 0.00 | 0.03 | 0.03 | 61 | 1005.8 |
| 20260509225406 | 68 | 168 | 4.0 | 6.0 | 0.00 | 0.03 | 0.03 | 60 | 1005.7 |
| 20260509224901 | 69 | 297 | 0.0 | 0.0 | 0.00 | 0.03 | 0.03 | 59 | 1006.0 |
| 20260509224357 | 69 | 358 | 4.0 | 4.0 | 0.00 | 0.03 | 0.03 | 59 | 1006.0 |
| 20260509223855 | 68 | 115 | 0.0 | 0.0 | 0.00 | 0.03 | 0.03 | 60 | 1006.0 |
| 20260509223351 | 67 | 90 | 6.0 | 8.0 | 0.00 | 0.03 | 0.03 | 60 | 1006.2 |
| 20260509222849 | 68 | 349 | 3.0 | 7.0 | 0.00 | 0.03 | 0.03 | 58 | 1006.1 |
| 20260509222348 | 69 | 322 | 2.0 | 4.0 | 0.00 | 0.03 | 0.03 | 57 | 1006.1 |
| 20260509221844 | 69 | 4 | 0.0 | 2.0 | 0.00 | 0.03 | 0.03 | 59 | 1006.2 |
| 20260509221342 | 69 | 93 | 0.0 | 1.0 | 0.00 | 0.03 | 0.03 | 59 | 1006.2 |
| 20260509220837 | 69 | 160 | 2.0 | 3.0 | 0.00 | 0.03 | 0.03 | 59 | 1006.1 |
| 20260509220333 | 69 | 56 | 3.0 | 6.0 | 0.00 | 0.03 | 0.03 | 58 | 1006.2 |
| 20260509215829 | 68 | 269 | 1.0 | 3.0 | 0.00 | 0.03 | 0.03 | 60 | 1006.2 |
| 20260509215326 | 68 | 161 | 4.0 | 4.0 | 0.00 | 0.03 | 0.03 | 60 | 1006.3 |
| 20260509214823 | 68 | 61 | 1.0 | 3.0 | 0.00 | 0.03 | 0.03 | 60 | 1006.4 |
| 20260509214320 | 69 | 318 | 1.0 | 2.0 | 0.00 | 0.03 | 0.03 | 60 | 1006.4 |
| 20260509213818 | 68 | 243 | 1.0 | 2.0 | 0.00 | 0.03 | 0.03 | 59 | 1006.2 |
| 20260509213313 | 67 | 181 | 6.0 | 8.0 | 0.00 | 0.03 | 0.03 | 61 | 1006.4 |
| 20260509212810 | 68 | 58 | 1.0 | 3.0 | 0.00 | 0.03 | 0.03 | 60 | 1006.2 |
| 20260509212308 | 68 | 27 | 4.0 | 4.0 | 0.00 | 0.03 | 0.03 | 60 | 1006.2 |
| 20260509211803 | 67 | 264 | 0.0 | 1.0 | 0.00 | 0.03 | 0.03 | 61 | 1006.2 |
| 20260509211259 | 67 | 264 | 0.0 | 1.0 | 0.00 | 0.03 | 0.03 | 61 | 1006.2 |
| 20260509210756 | 68 | 178 | 1.0 | 3.0 | 0.00 | 0.03 | 0.03 | 61 | 1006.3 |
| 20260509210254 | 69 | 138 | 3.0 | 3.0 | 0.00 | 0.03 | 0.03 | 60 | 1006.4 |
| 20260509205753 | 68 | 348 | 3.0 | 4.0 | 0.00 | 0.03 | 0.03 | 60 | 1006.4 |
| 20260509205248 | 68 | 139 | 1.0 | 2.0 | 0.00 | 0.03 | 0.03 | 60 | 1006.4 |
| 20260509204744 | 67 | 56 | 4.0 | 6.0 | 0.00 | 0.03 | 0.03 | 61 | 1006.4 |
| 20260509204241 | 66 | 354 | 4.0 | 8.0 | 0.00 | 0.03 | 0.03 | 63 | 1006.2 |
| 20260509203737 | 66 | 354 | 4.0 | 8.0 | 0.00 | 0.03 | 0.03 | 63 | 1006.2 |
| 20260509203235 | 67 | 247 | 2.0 | 4.0 | 0.00 | 0.03 | 0.03 | 61 | 1006.2 |
| 20260509202731 | 67 | 63 | 2.0 | 3.0 | 0.00 | 0.03 | 0.03 | 61 | 1006.5 |
| 20260509202227 | 67 | 172 | 3.0 | 8.0 | 0.00 | 0.03 | 0.03 | 61 | 1006.2 |
| 20260509201721 | 67 | 172 | 3.0 | 8.0 | 0.00 | 0.03 | 0.03 | 61 | 1006.2 |
| 20260509201218 | 67 | 78 | 4.0 | 7.0 | 0.00 | 0.03 | 0.03 | 60 | 1006.3 |
| 20260509200715 | 67 | 78 | 4.0 | 7.0 | 0.00 | 0.03 | 0.03 | 60 | 1006.3 |
| 20260509200210 | 67 | 314 | 1.0 | 1.0 | 0.00 | 0.03 | 0.03 | 60 | 1006.4 |
| 20260509195705 | 68 | 125 | 1.0 | 1.0 | 0.00 | 0.03 | 0.03 | 61 | 1006.3 |
| 20260509195200 | 68 | 319 | 3.0 | 7.0 | 0.00 | 0.03 | 0.03 | 62 | 1006.4 |
| 20260509194655 | 66 | 318 | 3.0 | 4.0 | 0.00 | 0.03 | 0.03 | 62 | 1006.8 |
| 20260509194152 | 66 | 149 | 0.0 | 1.0 | 0.00 | 0.03 | 0.03 | 62 | 1006.7 |
| 20260509193649 | 66 | 308 | 3.0 | 3.0 | 0.00 | 0.03 | 0.03 | 62 | 1006.6 |
| 20260509193144 | 66 | 120 | 0.0 | 1.0 | 0.00 | 0.03 | 0.03 | 62 | 1006.7 |
| 20260509192641 | 66 | 120 | 0.0 | 1.0 | 0.00 | 0.03 | 0.03 | 62 | 1006.7 |
| 20260509192135 | 68 | 102 | 2.0 | 2.0 | 0.00 | 0.03 | 0.03 | 60 | 1006.6 |
| 20260509191630 | 67 | 191 | 0.0 | 1.0 | 0.00 | 0.03 | 0.03 | 62 | 1006.7 |
| 20260509191127 | 66 | 304 | 0.0 | 1.0 | 0.00 | 0.03 | 0.03 | 63 | 1006.5 |
| 20260509190623 | 65 | 326 | 4.0 | 4.0 | 0.00 | 0.03 | 0.03 | 62 | 1006.6 |
| 20260509190121 | 65 | 310 | 1.0 | 2.0 | 0.00 | 0.03 | 0.03 | 65 | 1006.7 |
| 20260509185618 | 65 | 125 | 0.0 | 1.0 | 0.00 | 0.03 | 0.03 | 63 | 1006.6 |
| 20260509185113 | 65 | 254 | 0.0 | 1.0 | 0.00 | 0.03 | 0.03 | 62 | 1006.6 |
| 20260509181141 | 64 | 319 | 2.0 | 3.0 | 0.00 | 0.03 | 0.03 | 63 | 1006.5 |
| 20260509180637 | 64 | 319 | 2.0 | 3.0 | 0.00 | 0.03 | 0.03 | 63 | 1006.5 |
| 20260509180133 | 64 | 319 | 2.0 | 3.0 | 0.00 | 0.03 | 0.03 | 63 | 1006.5 |
| 20260509174830 | 64 | 222 | 0.0 | 1.0 | 0.00 | 0.03 | 0.03 | 67 | 1006.7 |
| 20260509174326 | 64 | 222 | 0.0 | 1.0 | 0.00 | 0.03 | 0.03 | 67 | 1006.7 |
| 20260509173821 | 64 | 222 | 0.0 | 1.0 | 0.00 | 0.03 | 0.03 | 67 | 1006.7 |
| 20260509172311 | 62 | 340 | 1.0 | 1.0 | 0.00 | 0.03 | 0.03 | 71 | 1006.9 |
| 20260509171806 | 62 | 340 | 1.0 | 1.0 | 0.00 | 0.03 | 0.03 | 71 | 1006.9 |
| 20260509171302 | 62 | 230 | 0.0 | 1.0 | 0.00 | 0.03 | 0.03 | 73 | 1007.1 |
| 20260509170758 | 62 | 350 | 0.0 | 1.0 | 0.00 | 0.03 | 0.03 | 71 | 1007.2 |
| 20260509170255 | 61 | 273 | 0.0 | 1.0 | 0.00 | 0.03 | 0.03 | 72 | 1007.2 |
| 20260509165753 | 61 | 346 | 1.0 | 2.0 | 0.00 | 0.03 | 0.03 | 73 | 1007.2 |
| 20260509155956 | 60 | 222 | 0.0 | 0.0 | 0.00 | 0.03 | 0.03 | 78 | 1007.3 |
| 20260509155452 | 60 | 222 | 0.0 | 0.0 | 0.00 | 0.03 | 0.03 | 78 | 1007.3 |
| 20260509154949 | 60 | 220 | 0.0 | 0.0 | 0.00 | 0.03 | 0.03 | 79 | 1007.2 |
| 20260509154302 | 59 | 182 | 0.0 | 1.0 | 0.00 | 0.03 | 0.03 | 81 | 1007.5 |
| 20260509153759 | 59 | 182 | 0.0 | 1.0 | 0.00 | 0.03 | 0.03 | 81 | 1007.5 |
| 20260509153255 | 59 | 217 | 0.0 | 0.0 | 0.00 | 0.03 | 0.03 | 82 | 1006.9 |
| 20260509152752 | 59 | 220 | 0.0 | 0.0 | 0.00 | 0.03 | 0.03 | 79 | 1007.4 |
| 20260509152248 | 59 | 269 | 0.0 | 0.0 | 0.00 | 0.03 | 0.03 | 79 | 1007.3 |
| 20260509151745 | 59 | 218 | 0.0 | 0.0 | 0.00 | 0.03 | 0.03 | 79 | 1007.7 |
| 20260509151242 | 59 | 195 | 0.0 | 0.0 | 0.00 | 0.03 | 0.03 | 79 | 1007.3 |
| 20260509150740 | 58 | 254 | 0.0 | 0.0 | 0.00 | 0.03 | 0.03 | 82 | 1007.6 |
| 20260509150238 | 58 | 273 | 0.0 | 0.0 | 0.00 | 0.03 | 0.03 | 80 | 1007.4 |
| 20260509145735 | 58 | 156 | 3.0 | 6.0 | 0.00 | 0.03 | 0.03 | 82 | 1007.8 |
| 20260509145234 | 57 | 237 | 0.0 | 0.0 | 0.00 | 0.03 | 0.03 | 84 | 1007.6 |
| 20260509144731 | 58 | 278 | 0.0 | 0.0 | 0.00 | 0.03 | 0.03 | 84 | 1007.7 |
| 20260509144228 | 58 | 299 | 0.0 | 0.0 | 0.00 | 0.03 | 0.03 | 86 | 1007.6 |
| 20260509143725 | 57 | 235 | 0.0 | 0.0 | 0.00 | 0.03 | 0.03 | 84 | 1007.6 |
| 20260509143223 | 58 | 234 | 0.0 | 0.0 | 0.00 | 0.03 | 0.03 | 84 | 1007.7 |
| 20260509142718 | 58 | 232 | 0.0 | 0.0 | 0.00 | 0.03 | 0.03 | 84 | 1007.7 |
| 20260509142215 | 57 | 226 | 1.0 | 2.0 | 0.00 | 0.03 | 0.03 | 85 | 1007.7 |
| 20260509141711 | 57 | 180 | 1.0 | 1.0 | 0.00 | 0.03 | 0.03 | 88 | 1007.8 |
| 20260509141208 | 57 | 243 | 0.0 | 0.0 | 0.00 | 0.03 | 0.03 | 88 | 1007.6 |
| 20260509140704 | 56 | 227 | 0.0 | 0.0 | 0.00 | 0.03 | 0.03 | 89 | 1007.6 |
| 20260509140202 | 56 | 223 | 0.0 | 0.0 | 0.00 | 0.03 | 0.03 | 88 | 1007.6 |
| 20260509135659 | 56 | 238 | 0.0 | 0.0 | 0.00 | 0.03 | 0.03 | 88 | 1007.5 |
| 20260509135157 | 56 | 231 | 0.0 | 0.0 | 0.00 | 0.03 | 0.03 | 89 | 1007.7 |
| 20260509134653 | 56 | 242 | 0.0 | 0.0 | 0.00 | 0.03 | 0.03 | 91 | 1007.8 |
| 20260509134151 | 55 | 243 | 0.0 | 0.0 | 0.00 | 0.03 | 0.03 | 92 | 1007.9 |
| 20260509133648 | 55 | 242 | 0.0 | 0.0 | 0.00 | 0.03 | 0.03 | 91 | 1007.8 |
| 20260509133145 | 55 | 223 | 0.0 | 0.0 | 0.00 | 0.03 | 0.03 | 91 | 1007.9 |
| 20260509132643 | 54 | 235 | 0.0 | 0.0 | 0.00 | 0.03 | 0.03 | 92 | 1008.0 |
| 20260509132142 | 54 | 225 | 0.0 | 0.0 | 0.00 | 0.03 | 0.03 | 92 | 1008.1 |
| 20260509131637 | 55 | 204 | 0.0 | 1.0 | 0.00 | 0.03 | 0.03 | 92 | 1007.9 |
| 20260509131135 | 55 | 233 | 0.0 | 0.0 | 0.00 | 0.03 | 0.03 | 92 | 1008.2 |
| 20260509130630 | 54 | 242 | 0.0 | 0.0 | 0.00 | 0.03 | 0.03 | 92 | 1008.2 |
| 20260509130127 | 54 | 244 | 0.0 | 0.0 | 0.00 | 0.03 | 0.03 | 93 | 1008.3 |
| 20260509125623 | 54 | 246 | 0.0 | 0.0 | 0.00 | 0.03 | 0.03 | 94 | 1008.0 |
| 20260509125120 | 54 | 246 | 0.0 | 0.0 | 0.00 | 0.03 | 0.03 | 95 | 1008.0 |
| 20260509124617 | 54 | 190 | 0.0 | 0.0 | 0.00 | 0.03 | 0.03 | 95 | 1008.1 |
| 20260509124114 | 53 | 233 | 0.0 | 0.0 | 0.00 | 0.03 | 0.03 | 95 | 1008.1 |
| 20260509123612 | 53 | 241 | 0.0 | 0.0 | 0.00 | 0.03 | 0.03 | 96 | 1008.0 |
| 20260509123108 | 52 | 237 | 0.0 | 0.0 | 0.00 | 0.03 | 0.03 | 96 | 1008.0 |
| 20260509122604 | 52 | 252 | 0.0 | 0.0 | 0.00 | 0.03 | 0.03 | 97 | 1008.1 |
| 20260509122102 | 52 | 266 | 0.0 | 0.0 | 0.05 | 0.03 | 0.03 | 97 | 1008.3 |
| 20260509121558 | 52 | 266 | 0.0 | 0.0 | 0.05 | 0.03 | 0.03 | 97 | 1008.1 |
| 20260509121056 | 52 | 266 | 0.0 | 0.0 | 0.00 | 0.02 | 0.02 | 97 | 1008.2 |
| 20260509120554 | 52 | 225 | 0.0 | 0.0 | 0.00 | 0.02 | 0.02 | 97 | 1008.1 |
| 20260509120052 | 52 | 240 | 0.0 | 0.0 | 0.00 | 0.02 | 0.02 | 96 | 1008.3 |
| 20260509115548 | 52 | 230 | 0.0 | 0.0 | 0.00 | 0.02 | 0.02 | 95 | 1008.0 |
| 20260509115046 | 52 | 274 | 0.0 | 0.0 | 0.00 | 0.02 | 0.02 | 95 | 1008.1 |
| 20260509114544 | 52 | 264 | 0.0 | 0.0 | 0.00 | 0.02 | 0.02 | 95 | 1008.2 |
| 20260509114043 | 52 | 222 | 0.0 | 0.0 | 0.00 | 0.02 | 0.02 | 94 | 1008.2 |
| 20260509113541 | 52 | 274 | 0.0 | 0.0 | 0.00 | 0.02 | 0.02 | 94 | 1008.4 |
| 20260509113038 | 52 | 244 | 0.0 | 0.0 | 0.00 | 0.02 | 0.02 | 95 | 1008.4 |
| 20260509112534 | 52 | 239 | 0.0 | 0.0 | 0.00 | 0.02 | 0.02 | 93 | 1008.1 |
| 20260509112031 | 52 | 252 | 0.0 | 0.0 | 0.00 | 0.02 | 0.02 | 94 | 1008.1 |
| 20260509111528 | 52 | 242 | 0.0 | 0.0 | 0.00 | 0.02 | 0.02 | 94 | 1008.0 |
| 20260509111026 | 52 | 265 | 0.0 | 0.0 | 0.00 | 0.02 | 0.02 | 94 | 1008.0 |
| 20260509110522 | 52 | 256 | 0.0 | 0.0 | 0.00 | 0.02 | 0.02 | 94 | 1007.8 |
| 20260509110020 | 52 | 241 | 0.0 | 0.0 | 0.00 | 0.02 | 0.02 | 94 | 1007.9 |
| 20260509105518 | 51 | 238 | 0.0 | 0.0 | 0.00 | 0.02 | 0.02 | 93 | 1007.9 |
| 20260509105015 | 51 | 245 | 0.0 | 0.0 | 0.00 | 0.02 | 0.02 | 94 | 1007.7 |
| 20260509104512 | 51 | 291 | 0.0 | 0.0 | 0.00 | 0.02 | 0.02 | 93 | 1007.7 |
| 20260509104009 | 52 | 221 | 0.0 | 0.0 | 0.00 | 0.02 | 0.02 | 93 | 1007.9 |
| 20260509103507 | 52 | 240 | 0.0 | 0.0 | 0.00 | 0.02 | 0.02 | 94 | 1007.9 |
| 20260509103004 | 52 | 238 | 0.0 | 0.0 | 0.00 | 0.02 | 0.02 | 93 | 1007.7 |
| 20260509102502 | 52 | 214 | 0.0 | 0.0 | 0.00 | 0.02 | 0.02 | 91 | 1007.7 |
| 20260509101958 | 52 | 254 | 0.0 | 0.0 | 0.00 | 0.02 | 0.02 | 91 | 1007.7 |
| 20260509101454 | 52 | 252 | 0.0 | 0.0 | 0.00 | 0.02 | 0.02 | 91 | 1007.6 |
| 20260509100952 | 53 | 245 | 0.0 | 0.0 | 0.00 | 0.02 | 0.02 | 91 | 1007.7 |
| 20260509100449 | 53 | 175 | 0.0 | 0.0 | 0.00 | 0.02 | 0.02 | 89 | 1007.8 |
| 20260509095945 | 53 | 159 | 0.0 | 0.0 | 0.00 | 0.02 | 0.02 | 87 | 1008.0 |
| 20260509095442 | 53 | 230 | 0.0 | 0.0 | 0.00 | 0.02 | 0.02 | 89 | 1007.7 |
| 20260509094939 | 53 | 243 | 0.0 | 0.0 | 0.00 | 0.02 | 0.02 | 87 | 1008.0 |
| 20260509094436 | 53 | 232 | 0.0 | 0.0 | 0.00 | 0.02 | 0.02 | 86 | 1007.7 |
| 20260509093933 | 53 | 237 | 0.0 | 0.0 | 0.07 | 0.02 | 0.02 | 86 | 1008.1 |
| 20260509093431 | 53 | 234 | 0.0 | 0.0 | 0.07 | 0.02 | 0.02 | 85 | 1008.1 |
| 20260509092929 | 54 | 245 | 0.0 | 0.0 | 0.00 | 0.01 | 0.01 | 84 | 1007.9 |
| 20260509092426 | 54 | 249 | 0.0 | 0.0 | 0.00 | 0.01 | 0.01 | 84 | 1008.1 |
| 20260509091925 | 54 | 216 | 0.0 | 0.0 | 0.00 | 0.01 | 0.01 | 82 | 1008.0 |
| 20260509091421 | 54 | 273 | 0.0 | 0.0 | 0.00 | 0.01 | 0.01 | 82 | 1008.1 |
| 20260509090918 | 55 | 229 | 0.0 | 0.0 | 0.00 | 0.01 | 0.01 | 81 | 1008.2 |
| 20260509090416 | 55 | 39 | 0.0 | 0.0 | 0.00 | 0.01 | 0.01 | 79 | 1008.1 |
| 20260509085913 | 55 | 296 | 0.0 | 0.0 | 0.00 | 0.01 | 0.01 | 78 | 1008.1 |
| 20260509085410 | 55 | 297 | 1.0 | 1.0 | 0.00 | 0.01 | 0.01 | 77 | 1008.2 |
| 20260509084906 | 55 | 279 | 0.0 | 0.0 | 0.00 | 0.01 | 0.01 | 78 | 1008.3 |
| 20260509084403 | 55 | 263 | 0.0 | 0.0 | 0.00 | 0.01 | 0.01 | 78 | 1008.4 |
| 20260509083901 | 54 | 303 | 1.0 | 1.0 | 0.00 | 0.01 | 0.01 | 83 | 1008.4 |
| 20260509083358 | 55 | 232 | 0.0 | 0.0 | 0.00 | 0.01 | 0.01 | 83 | 1008.0 |
| 20260509082854 | 55 | 268 | 0.0 | 0.0 | 0.00 | 0.01 | 0.01 | 77 | 1008.0 |
| 20260509082351 | 55 | 300 | 0.0 | 0.0 | 0.00 | 0.01 | 0.01 | 78 | 1008.2 |
| 20260509081848 | 55 | 1 | 1.0 | 2.0 | 0.00 | 0.01 | 0.01 | 77 | 1008.2 |
| 20260509081346 | 55 | 342 | 1.0 | 3.0 | 0.00 | 0.01 | 0.01 | 81 | 1008.4 |
| 20260509080843 | 53 | 9 | 1.0 | 2.0 | 0.00 | 0.01 | 0.01 | 83 | 1008.4 |
| 20260509080341 | 52 | 336 | 0.0 | 0.0 | 0.00 | 0.01 | 0.01 | 88 | 1008.3 |
| 20260509075839 | 52 | 248 | 0.0 | 0.0 | 0.00 | 0.01 | 0.01 | 95 | 1008.4 |
| 20260509075336 | 52 | 271 | 0.0 | 0.0 | 0.00 | 0.01 | 0.01 | 95 | 1008.0 |
| 20260509074833 | 52 | 295 | 0.0 | 0.0 | 0.00 | 0.01 | 0.01 | 94 | 1007.9 |
| 20260509074331 | 52 | 261 | 0.0 | 0.0 | 0.00 | 0.01 | 0.01 | 95 | 1007.9 |
| 20260509073827 | 52 | 229 | 0.0 | 0.0 | 0.00 | 0.01 | 0.01 | 94 | 1007.7 |
| 20260509073323 | 52 | 242 | 0.0 | 0.0 | 0.00 | 0.01 | 0.01 | 94 | 1007.5 |
| 20260509072820 | 51 | 254 | 0.0 | 0.0 | 0.00 | 0.01 | 0.01 | 94 | 1007.4 |
| 20260509072316 | 52 | 279 | 0.0 | 0.0 | 0.00 | 0.01 | 0.01 | 93 | 1007.5 |
| 20260509071813 | 52 | 222 | 0.0 | 0.0 | 0.00 | 0.01 | 0.01 | 93 | 1007.4 |
| 20260509071310 | 52 | 187 | 0.0 | 0.0 | 0.00 | 0.01 | 0.01 | 92 | 1007.4 |
| 20260509070807 | 53 | 215 | 1.0 | 1.0 | 0.00 | 0.01 | 0.01 | 91 | 1007.6 |
| 20260509070304 | 53 | 3 | 0.0 | 0.0 | 0.00 | 0.01 | 0.01 | 89 | 1007.5 |
| 20260509065800 | 54 | 35 | 0.0 | 0.0 | 0.05 | 0.01 | 0.01 | 84 | 1007.5 |
| 20260509065256 | 55 | 250 | 0.0 | 0.0 | 0.05 | 0.01 | 0.01 | 80 | 1007.5 |
| 20260509064753 | 55 | 335 | 0.0 | 0.0 | 0.00 | 0.00 | 0.00 | 77 | 1007.5 |
| 20260509064250 | 56 | 262 | 0.0 | 0.0 | 0.00 | 0.00 | 0.00 | 75 | 1007.3 |
| 20260509063748 | 56 | 142 | 2.0 | 4.0 | 0.00 | 0.00 | 0.00 | 71 | 1007.5 |
| 20260509063244 | 57 | 311 | 0.0 | 0.0 | 0.00 | 0.00 | 0.00 | 69 | 1007.4 |
| 20260509062741 | 57 | 220 | 0.0 | 1.0 | 0.00 | 0.00 | 0.00 | 66 | 1007.5 |
| 20260509062238 | 57 | 209 | 0.0 | 1.0 | 0.00 | 0.00 | 0.00 | 65 | 1007.4 |
| 20260509061735 | 56 | 262 | 0.0 | 0.0 | 0.00 | 0.00 | 0.00 | 69 | 1007.4 |
| 20260509061233 | 56 | 268 | 0.0 | 0.0 | 0.00 | 0.00 | 0.00 | 70 | 1007.4 |
| 20260509060730 | 56 | 261 | 0.0 | 0.0 | 0.00 | 0.00 | 0.00 | 69 | 1007.3 |
| 20260509060226 | 56 | 258 | 0.0 | 0.0 | 0.00 | 0.00 | 0.00 | 68 | 1007.3 |
| 20260509055722 | 57 | 262 | 0.0 | 0.0 | 0.00 | 0.00 | 0.00 | 68 | 1007.2 |
| 20260509055218 | 56 | 261 | 0.0 | 0.0 | 0.00 | 0.00 | 0.00 | 67 | 1007.5 |
| 20260509054715 | 57 | 277 | 0.0 | 0.0 | 0.00 | 0.00 | 0.00 | 69 | 1007.3 |
| 20260509054212 | 56 | 195 | 0.0 | 0.0 | 0.00 | 0.00 | 0.00 | 66 | 1007.3 |
| 20260509053710 | 56 | 256 | 0.0 | 0.0 | 0.00 | 0.00 | 0.00 | 73 | 1007.8 |
| 20260509053207 | 56 | 252 | 0.0 | 0.0 | 0.00 | 0.00 | 0.00 | 75 | 1007.6 |
| 20260509052705 | 56 | 255 | 0.0 | 0.0 | 0.00 | 0.00 | 0.00 | 76 | 1007.6 |
| 20260509052202 | 56 | 241 | 0.0 | 0.0 | 0.00 | 0.00 | 0.00 | 78 | 1007.6 |
| 20260509051700 | 56 | 230 | 0.0 | 0.0 | 0.00 | 0.00 | 0.00 | 79 | 1007.7 |
| 20260509051157 | 56 | 293 | 0.0 | 0.0 | 0.00 | 0.00 | 0.00 | 73 | 1007.7 |
| 20260509050654 | 56 | 244 | 0.0 | 0.0 | 0.00 | 0.00 | 0.00 | 74 | 1008.0 |
| 20260509050150 | 55 | 255 | 0.0 | 0.0 | 0.00 | 0.00 | 0.00 | 75 | 1007.8 |
| 20260509045648 | 55 | 269 | 0.0 | 0.0 | 0.00 | 0.00 | 0.00 | 76 | 1007.8 |
| 20260509045145 | 55 | 273 | 0.0 | 0.0 | 0.00 | 0.00 | 0.00 | 74 | 1007.9 |
| 20260509044642 | 56 | 241 | 0.0 | 0.0 | 0.00 | 0.00 | 0.00 | 75 | 1007.9 |
| 20260509044139 | 56 | 238 | 0.0 | 0.0 | 0.00 | 0.00 | 0.00 | 78 | 1007.8 |
| 20260509043635 | 57 | 242 | 0.0 | 0.0 | 0.00 | 0.00 | 0.00 | 77 | 1007.8 |
| 20260509042306 | 57 | 246 | 0.0 | 0.0 | 0.00 | 0.00 | 0.00 | 72 | 1007.9 |
| 20260509041759 | 57 | 246 | 0.0 | 0.0 | 0.00 | 0.00 | 0.00 | 72 | 1007.9 |
| 20260509041256 | 57 | 272 | 0.0 | 0.0 | 0.00 | 0.00 | 0.00 | 67 | 1008.2 |
| 20260509040755 | 57 | 278 | 0.0 | 0.0 | 0.00 | 0.00 | 0.00 | 69 | 1008.1 |
| 20260509040252 | 57 | 262 | 0.0 | 0.0 | 0.00 | 0.00 | 0.00 | 69 | 1008.3 |
| 20260509035749 | 59 | 255 | 0.0 | 0.0 | 0.00 | 0.00 | 0.00 | 71 | 1008.3 |
| 20260509035246 | 59 | 239 | 0.0 | 0.0 | 0.00 | 0.00 | 0.00 | 70 | 1008.1 |
| 20260509034742 | 59 | 239 | 0.0 | 0.0 | 0.00 | 0.00 | 0.00 | 72 | 1008.2 |
| 20260509034240 | 58 | 241 | 0.0 | 0.0 | 0.00 | 0.00 | 0.00 | 70 | 1008.4 |
| 20260509033737 | 58 | 243 | 0.0 | 0.0 | 0.00 | 0.00 | 0.00 | 70 | 1008.3 |